Notices

Please take our survey and provide feedback: https://eccc.sondage-survey.ca/f/LanguageSelection.aspx?s=442ca660-fcf1-47c0-95a9-59707d6fd709

Please note that for the Engineering Climate Datasets, IDF dataset is available through this link.  Intensity-Duration-Frequency (IDF) Files: Includes the latest version of short-duration rainfall Intensity-Duration-Frequency (IDF) statistics in the form of tables and graphs with accompanying documentation for various locations across Canada.  Current IDF files can be accessed through our station finder application or downloaded for each province and territory across Canada.  In addition, historical versions of IDF files are also available for download.  Updates of IDF files are provided approximately every two years depending on the availability of data.   Thank you for your patience as we enhance our systems.

Hourly Data Report for June 06, 2020

TRENTON A
ONTARIO
Current Station Operator: DND

44°07'00.000" N
77°32'00.000" W
86.30 m
6158875
71621
YTR

Download Data

Hourly Data (June 2020)
Hourly Data Report for June 6, 2020
TIME
LST
Temp Definition
°C
Dew Point Definition
°C
Rel Hum Definition
%
Precip. Amount Definition
mm

Wind Dir Definition
10's deg

Wind Spd Definition
km/h
Visibility Definition
km
Stn Press Definition
kPa
Hmdx Definition


Wind Chill Definition


Weather Definition


00:00 18.8 17.8 94   22 8 9.7 99.76     Fog
01:00 18.2 17.2 94   21 8 9.7 99.72     Fog
02:00 17.0 16.5 97   33 8 9.7 99.68     Fog
03:00 18.3 16.4 89   32 13 16.1 99.73     Mostly Cloudy
04:00 17.6 15.7 89   2 9 24.1 99.75     Mainly Clear
05:00 17.4 12.1 71   33 13 24.1 99.80     Mostly Cloudy
06:00 17.2 14.6 85   32 11 24.1 99.90     Mainly Clear
07:00 19.2 14.1 72   32 13 24.1 99.97     Mainly Clear
08:00 20.4 13.5 65   33 15 24.1 100.00     Mainly Clear
09:00 22.4 11.9 51   31 17 24.1 100.03 25   Mainly Clear
10:00 23.2 10.0 43   34 21 24.1 100.00     Mainly Clear
11:00 24.7 11.6 44   31 11 24.1 100.02 27   Mainly Clear
12:00 25.3 11.4 42   30 13 24.1 100.01 27   Mainly Clear
13:00 25.3 10.0 38   26 15 24.1 99.93 27   Mainly Clear
14:00 22.0 10.1 47   34 28 24.1 100.01     Thunderstorms,Rain Showers
15:00 24.3 9.0 38   29 30 24.1 99.98 25   Mainly Clear
16:00 21.6 12.0 54   34 11 24.1 100.01     Rain Showers
17:00 22.0 11.0 50   33 24 24.1 100.06     Thunderstorms
18:00 19.4 11.4 60   33 11 24.1 100.11     Mostly Cloudy
19:00 18.2 13.1 72   33 15 24.1 100.19     Mostly Cloudy
20:00 16.4 13.6 84   36 9 24.1 100.26     Mostly Cloudy
21:00 14.5 12.3 87   5 11 24.1 100.36     Mainly Clear
22:00 14.0 11.6 85   5 5 24.1 100.42     Clear
23:00 14.3 9.9 75   36 15 24.1 100.48     Clear

Notes on Data Quality.

Legend

  • E = Estimated
  • M = Missing
  • NA = Not Available*
  • [empty] = Indicates an unobserved value
Date modified: